Location: Bas Masville
(50.6000°N, 4.2667°E)
Time: 06:02:57
(UTC+00:00)

Daily predictions for brighter satellites

Satellite Brightness Start Highest point End
(mag) Time Altitude Azimuth Time Altitude Azimuth Time Altitude Azimuth
Okean O Rocket 3.0 19:16:53 10° ESE 19:20:17 23° ENE 19:23:41 10° N
Cosmos 2084 Rocket 3.6 19:16:24 10° SW 19:20:27 74° NW 19:24:36 10° NE
CZ-4 R/B 1.1 19:21:28 10° SSE 19:25:10 74° ENE 19:28:52 10° N
ATLAS 5 CENTAUR R/B 3.6 19:24:11 10° NNW 19:26:23 15° NNE 19:28:48 10° NE
NOSS 3-1 (C) 4.3 19:20:40 10° NW 19:27:08 56° NE 19:35:17 10° ESE
Spot 2 Rocket 4.4 19:24:06 10° SE 19:28:29 32° ENE 19:32:54 10° N
SPOT 5 3.0 19:24:26 10° S 19:28:54 70° WSW 19:33:15 10° NNW
NOSS 3-4 (A) 3.4 19:24:35 10° SW 19:29:55 81° NW 19:35:54 10° NE
NOSS 3-4 (C) 3.4 19:25:06 10° SW 19:30:27 82° NW 19:36:28 10° NE
Cosmos 1656 Rocket 3.7 19:25:23 10° NNW 19:30:53 80° ENE 19:36:25 10° SSE
Cosmos 546 4.4 19:27:16 10° WSW 19:30:55 76° SSE 19:34:35 10° E
Cosmos 1025 Rocket 3.4 19:27:21 10° N 19:31:27 44° ENE 19:35:33 10° SSE
Helios 1A Rocket 2.5 19:29:23 10° NNE 19:32:30 46° E 19:35:36 10° S
Cosmos 2242 Rocket 3.7 19:31:10 10° NNW 19:35:39 80° W 19:40:02 10° S
CZ-4B R/B 4.1 19:33:02 10° S 19:36:47 70° WSW 19:40:42 10° NNW
PAYLOAD B 4.2 19:31:26 10° SSE 19:36:54 75° ENE 19:42:25 10° NNW
Cosmos 1733 Rocket 3.0 19:32:35 10° S 19:36:57 82° E 19:41:23 10° NNE
Terra 1.9 19:33:30 10° SSE 19:38:06 60° ENE 19:42:45 10° N
BREEZE-M DEB (TANK) 2.2 19:35:54 10° W 19:38:24 65° S 19:43:38 10° ESE
Resurs 01 Rocket 4.4 19:39:53 10° SW 19:42:59 19° W 19:46:08 10° NW
Cosmos 1821 Rocket 4.0 19:37:21 10° S 19:43:38 81° E 19:50:03 10° NNE
Cosmos 2237 Rocket 2.6 19:39:01 10° SW 19:44:42 72° WNW 19:50:26 10° NNE
Cosmos 1980 4.2 19:41:05 10° SW 19:46:41 65° WNW 19:52:19 10° NNE
Cosmos 2218 Rocket 4.3 19:43:35 10° SSW 19:49:42 71° WNW 19:55:54 10° N
Cosmos 2150 Rocket 4.5 19:45:27 10° S 19:50:08 37° ESE 19:54:55 10° NE
CSL-04 Rocket 4.4 19:44:43 10° S 19:50:09 56° W 19:55:37 10° NNW
Cosmos 1346 Rocket 2.5 19:47:40 10° N 19:51:18 75° ENE 19:54:54 10° SSE
BREEZE-M DEB (TANK) 2.2 19:50:07 10° W 19:52:26 75° S 19:56:53 10° E
COSMOS 2455 4.0 19:47:23 10° NNW 19:52:45 32° NE 19:58:06 10° E
Meteor 2-15 Rocket 4.4 19:46:57 10° S 19:53:02 85° E 19:59:11 10° NNE
Meteor 2-16 Rocket 4.4 19:51:08 10° N 19:57:19 79° E 20:03:26 10° SSE
SL-4 R/B 3.6 19:56:02 10° SSE 19:57:34 14° SE 19:57:34 14° SE
Cosmos 1000 Rocket 4.5 19:52:09 10° N 19:58:20 75° E 20:04:27 10° SSE
Cosmos 1602 2.7 19:56:11 10° N 19:58:25 44° ENE 19:59:39 21° SE
Cosmos 1400 Rocket 3.0 19:54:54 10° SSW 19:58:28 66° WNW 20:02:07 10° N
Cosmos 1812 1.8 19:57:55 10° SSW 19:59:32 44° WNW 20:01:10 10° N
SJ 16-02 3.6 19:59:49 10° NNE 20:01:08 11° NE 20:02:25 10° ENE
Meteor 1-31 Rocket 4.0 19:58:12 10° SSW 20:01:28 36° W 20:04:45 10° NNW
USA 59 Rocket 1.5 20:00:00 10° WNW 20:03:01 27° SW 20:06:46 10° S
ASTEX 1 3.6 19:59:48 10° SSE 20:04:31 55° ENE 20:09:21 10° N
Cosmos 2297 3.8 20:00:20 10° NNW 20:06:06 67° ENE 20:10:44 16° SE
Cosmos 1869 3.7 20:06:01 16° SSE 20:08:22 34° E 20:11:37 10° NNE
Cosmos 1315 Rocket 4.1 20:08:55 18° ESE 20:10:00 20° E 20:12:49 10° NE
Cosmos 2369 Rocket 2.2 20:04:51 10° NNW 20:10:29 78° ENE 20:15:00 16° SE
SPOT 3 Rocket 4.3 20:08:17 16° SE 20:11:54 38° ENE 20:16:40 10° N
ADEOS 3.7 20:07:18 10° S 20:12:30 76° WSW 20:17:45 10° NNW
SL-08 R/B 3.4 20:08:51 10° NNE 20:13:45 66° ESE 20:18:36 10° S
USA 186 1.1 20:14:08 33° SE 20:14:52 51° ENE 20:17:12 10° N
Lacrosse 5 rocket 2.4 20:14:02 10° NW 20:16:51 28° N 20:19:32 11° ENE
RESURS DK-1 3.9 20:13:44 10° WSW 20:17:26 38° NW 20:21:11 10° NNE
Cosmos 2221 Rocket 3.5 20:14:17 10° N 20:18:43 90° NE 20:22:40 13° S
YAOGAN 11 4.2 20:14:53 10° NNE 20:19:03 50° E 20:23:06 11° S
USA 234 3.3 20:12:56 10° ENE 20:19:20 53° SE 20:25:42 10° SW
Cosmos 2285 Rocket 4.0 20:14:51 10° S 20:21:06 64° ESE 20:27:22 10° NNE
SKYMED 3 4.3 20:17:52 10° NNE 20:21:46 86° WNW 20:25:40 10° SSW
Cosmos 405 Rocket 2.5 20:20:40 10° N 20:23:30 42° ENE 20:24:26 31° ESE
NOSS 3-1 (A) 4.2 20:20:19 10° NW 20:26:55 60° NE 20:33:20 18° ESE
Cosmos 1943 3.8 20:23:23 12° SSE 20:27:59 34° ESE 20:33:03 10° NE
Cosmos 921 Rocket 3.9 20:23:54 10° N 20:28:00 36° ENE 20:30:06 23° ESE
Molniya-1 3.4 20:25:59 10° SSW 20:28:43 63° SE 20:34:54 10° NE
CZ-4B R/B 3.0 20:27:34 27° ESE 20:28:55 41° ENE 20:32:07 10° N
CZ-4B R/B 3.9 20:24:44 10° S 20:30:13 55° W 20:35:48 10° NNW
SL-8 R/B 3.7 20:28:00 10° WSW 20:32:37 56° SSE 20:36:05 17° E
Cosmos 1975 Rocket 3.5 20:29:38 10° N 20:33:56 46° ENE 20:35:59 27° SE
Cosmos 1356 Rocket 4.2 20:36:34 27° ESE 20:37:26 30° E 20:40:58 10° NNE
ERS-1 Rocket 4.3 20:35:29 10° SSW 20:40:06 37° W 20:44:45 10° NNW
Cosmos 2263 4.2 20:35:57 10° NNW 20:41:37 83° WSW 20:45:14 23° SSE
CZ-2C R/B 2.7 20:44:39 35° E 20:44:50 36° ENE 20:47:30 10° N
Okean-O 3.0 20:44:32 18° S 20:47:42 61° WSW 20:52:04 10° NNW
Cosmos 2298 Rocket 4.1 20:44:41 10° SSW 20:49:59 82° WNW 20:55:21 10° NNE
Cosmos 1908 Rocket 4.1 20:47:03 10° SSW 20:51:18 58° WNW 20:55:34 10° N
Cosmos 44 3.7 20:46:17 10° SW 20:51:23 71° NW 20:56:46 10° NE
Okean O Rocket 2.4 20:53:05 17° S 20:56:13 48° W 21:00:25 10° NNW
CZ-4B R/B 3.3 20:55:25 30° SSE 20:57:45 79° ENE 21:02:31 10° NNW
ATLAS 3B R/B 4.4 20:52:10 10° NW 20:59:11 33° NNE 21:06:02 10° ENE
Ariane Rocket 3.0 20:57:13 31° SSE 20:59:38 72° ENE 21:04:40 10° N
CZ-4 R/B 4.2 20:58:38 10° WSW 20:59:40 11° W 21:00:41 10° WNW
Geosat 4.0 20:55:09 10° NNE 21:00:11 87° WNW 21:05:11 10° SW
SL-16 R/B 2.6 20:55:09 10° SW 21:00:46 64° WNW 21:06:27 10° NNE
Cosmos 1782 Rocket 3.5 20:58:38 21° S 21:01:27 86° W 21:05:48 10° N
Cosmos 1934 Rocket 4.2 20:56:16 10° SSW 21:02:31 74° W 21:08:43 10° N
Spot 2 Rocket 4.4 21:03:20 15° SSW 21:07:15 43° W 21:12:02 10° NNW
Cosmos 1269 Rocket 4.0 21:02:35 10° NNW 21:07:53 79° WSW 21:10:20 33° SSE
USA 245 4.2 21:05:18 27° S 21:08:02 72° WSW 21:13:39 10° NNW
Cosmos 546 4.4 21:05:25 10° W 21:09:05 88° S 21:09:52 53° E
ATLAS 5 CENTAUR R/B 2.2 21:05:29 10° NW 21:09:15 43° NE 21:11:03 29° E
Cosmos 1140 Rocket 3.6 21:05:18 10° NNW 21:10:26 70° WSW 21:12:46 32° S
Terra 4.1 21:12:38 10° SW 21:16:02 20° W 21:19:27 10° NW
NOSS 3-1 (C) 4.4 21:11:18 10° NW 21:18:08 54° SW 21:23:02 25° S
Cosmos 1818 4.2 21:15:28 10° NW 21:20:47 48° NE 21:23:16 29° E
IRS-P2 Rocket 4.5 21:19:05 38° SSE 21:21:12 86° ENE 21:26:27 10° NNW
Cosmos 1862 3.1 21:18:49 10° NNW 21:22:25 70° W 21:22:56 58° SSW
Cosmos 1447 Rocket 4.4 21:18:27 10° N 21:24:45 89° E 21:27:42 34° S
Cosmos 2058 2.8 21:22:52 10° NNW 21:26:48 72° W 21:27:31 55° SSW
Meteor 2-17 Rocket 4.4 21:20:51 10° N 21:27:01 74° ENE 21:29:29 38° SSE
Cosmos 407 Rocket 3.3 21:22:16 10° NNW 21:27:25 84° ENE 21:28:57 46° SSE
Cosmos 1174 4.5 21:27:47 10° NW 21:30:21 31° WSW 21:30:21 31° WSW
Cosmos 371 Rocket 3.2 21:27:16 10° NNW 21:32:08 76° ENE 21:33:16 52° SE
ARIANE 5 R/B 4.4 21:32:43 17° ENE 21:33:32 18° ENE 21:36:31 10° NNE
SL-4 R/B 4.4 21:31:04 10° SW 21:31:15 11° SW 21:31:15 11° SW
ATLAS 2AS CENTAUR R/B 4.2 21:38:08 18° E 21:38:08 18° E 21:41:15 10° ENE
ARIANE 6 FM1 Upper Stage 4.4 21:34:53 10° NNW 21:38:17 25° NNE 21:40:03 19° ENE
COSMOS 2455 2.8 21:33:14 10° NW 21:39:15 76° WSW 21:41:17 43° SSE
SJ 16-02 1.3 21:35:53 10° NNW 21:40:08 62° ENE 21:40:32 59° E
Cosmos 2251 Rocket 3.8 21:36:47 10° NNW 21:42:04 58° ENE 21:43:27 44° ESE
Cosmos 1536 Rocket 3.5 21:40:59 10° N 21:45:15 64° ENE 21:45:30 62° E
Cosmos 1315 Rocket 4.1 21:43:33 22° WSW 21:45:20 35° WNW 21:48:50 10° N
Gbstr 26 Del rocket 4.3 21:46:08 10° SW 21:48:40 28° SW 21:48:40 28° SW
Cosmos 1605 Rocket 4.5 21:47:33 17° SSW 21:52:09 56° WNW 21:58:13 10° N
Lacrosse 5 rocket 1.8 21:50:36 10° WNW 21:52:48 41° NW 21:52:48 41° NW
Cosmos 2369 Rocket 4.1 21:49:53 10° NW 21:53:50 20° W 21:56:46 14° SW
SeaSat 1 3.1 21:56:42 38° E 21:57:55 46° NE 22:02:37 10° NNW
USA 234 3.5 21:56:01 10° ENE 22:02:33 71° NNW 22:09:03 10° WSW
Cosmos 1697 Rocket 3.8 21:58:09 10° NNW 22:03:21 36° NE 22:05:24 27° E
Cosmos 2173 Rocket 3.9 22:03:21 51° SSE 22:04:56 73° E 22:11:03 10° NNE
Cosmos 921 Rocket 4.4 22:02:10 10° NW 22:05:58 29° W 22:06:41 28° WSW
Helios 1B rocket 2.8 22:09:10 50° N 22:09:10 50° N 22:11:55 10° N
Cosmos 1892 Rocket 4.3 22:04:58 10° N 22:09:00 41° ENE 22:09:00 41° ENE
Cosmos 1603 3.6 22:08:00 45° SSW 22:09:50 87° ESE 22:15:34 10° NNE
Cosmos 1943 4.0 22:06:19 10° SW 22:11:50 50° NW 22:17:21 10° NNE
Meteor 2-3 Rocket 3.6 22:07:21 10° NNW 22:12:59 89° W 22:14:03 61° S
SL-8 R/B 3.9 22:10:01 10° W 22:13:50 54° WSW 22:13:50 54° WSW
Cosmos 2151 Rocket 3.5 22:17:04 78° W 22:17:08 79° W 22:21:32 10° N
Okean 1 Rocket 3.1 22:17:47 66° NE 22:17:47 66° NE 22:21:43 10° NNE
NOSS 3-1 (A) 4.4 22:11:03 10° NW 22:17:56 50° WSW 22:20:42 37° S
Helios 1A 3.1 22:18:33 10° NNE 22:22:03 66° N 22:22:03 66° N
Cosmos 1371 Rocket 4.4 22:23:18 46° E 22:23:18 46° E 22:27:58 10° NNE
Cosmos 1980 Rocket 3.8 22:18:56 10° NNW 22:23:49 28° NE 22:26:39 19° E
Okean 2 Rocket 3.0 22:24:29 83° NNW 22:24:29 83° NNW 22:28:50 10° N
Cosmos 968 Rocket 4.0 22:21:25 10° NNW 22:26:30 49° ENE 22:27:16 46° E
Cosmos 1190 Rocket 3.9 22:21:42 10° NNW 22:26:59 71° WSW 22:27:28 66° SSW
Cosmos 1455 Rocket 3.8 22:28:48 43° ENE 22:28:48 43° ENE 22:32:18 10° NNE
Cosmos 2100 Rocket 4.0 22:26:44 47° SSW 22:28:37 77° W 22:34:51 10° N
CZ-2C R/B 4.5 22:26:07 10° NNE 22:29:25 39° ENE 22:29:25 39° ENE
Tsikada Rocket 4.1 22:24:42 10° N 22:30:57 63° ENE 22:32:10 53° SE
Cosmos 2061 Rocket 4.2 22:35:46 48° ESE 22:36:28 50° E 22:42:25 10° NNE
Cosmos 972 Rocket 4.4 22:35:50 59° SSE 22:36:59 73° ESE 22:43:49 10° NNE
Meteor 1-27 4.3 22:40:55 59° ESE 22:41:16 60° E 22:46:54 10° NNE
Cosmos 2360 4.2 22:35:55 10° NW 22:41:34 65° WSW 22:42:06 62° SW
Cosmos 1656 3.8 22:38:43 10° NW 22:44:02 54° WSW 22:44:20 53° SW
Cosmos 332 Rocket 3.8 22:45:34 10° NNW 22:50:07 76° WNW 22:50:07 76° WNW
ATLAS 5 CENTAUR R/B 2.9 22:47:25 10° WNW 22:50:10 31° W 22:50:10 31° W
ATLAS 3B R/B 3.3 22:43:43 10° NW 22:51:31 60° NE 22:55:41 28° ESE
Cosmos 1420 Rocket 4.5 22:54:22 45° WSW 22:55:37 57° WNW 23:00:51 10° NNE
Cosmos 1954 Rocket 4.4 22:52:15 10° NNW 22:57:15 48° WSW 22:57:15 48° WSW
Aureole 3 Rocket 3.8 22:58:44 56° E 22:58:48 56° E 23:05:12 10° NNE
Cosmos 1833 Rocket 2.8 23:01:17 57° E 23:01:17 57° E 23:06:27 10° NE
Cosmos 676 Rocket 4.2 22:55:47 10° NNW 23:00:56 60° WSW 23:00:56 60° WSW
Cosmos 2082 Rocket 4.3 23:02:51 14° E 23:02:51 14° E 23:05:06 10° ENE
ALOS 2 2.8 23:03:31 67° NNW 23:03:31 67° NNW 23:07:21 10° NNW
Sich 1 Rocket 4.3 23:03:46 45° WNW 23:03:46 45° WNW 23:07:55 10° N
BREEZE-M R/B 4.2 22:54:56 10° W 23:04:04 89° S 23:09:44 10° E
Cosmos 1818 4.3 22:59:12 10° NW 23:03:51 40° WSW 23:03:51 40° WSW
SL-08 R/B 4.4 23:03:25 63° SSW 23:04:29 82° W 23:10:47 10° N
Spot 4 3.9 23:08:14 68° WNW 23:08:14 68° WNW 23:12:39 10° NNW
Meteor 2-12 Rocket 4.4 23:03:14 10° NNW 23:09:16 71° W 23:10:02 63° SW
ARIANE 5 R/B 3.1 23:10:04 55° NW 23:10:04 55° NW 23:13:44 10° NNW
CZ-2C R/B 4.0 23:04:36 10° NNE 23:09:16 37° E 23:09:16 37° E
Cosmos 1725 Rocket 4.3 23:08:51 48° SW 23:10:26 62° WNW 23:16:42 10° N
PSLV R/B 4.3 23:11:34 10° NNE 23:14:38 46° NE 23:14:38 46° NE
DEBRIS 4.2 23:14:39 42° WSW 23:16:36 79° SSE 23:33:11 10° E
Cosmos 2228 3.6 23:18:31 53° N 23:18:31 53° N 23:21:45 10° N
ARIANE 6 FM1 Upper Stage 4.0 23:13:41 10° NW 23:16:01 34° NW 23:16:01 34° NW
SJ 16-02 3.5 23:15:04 10° WNW 23:17:01 16° W 23:17:01 16° W
USA 229 DEB 3.9 23:10:23 10° NW 23:17:48 89° NE 23:20:33 47° SE
USA 229 3.9 23:10:26 10° NW 23:17:52 88° NE 23:20:40 46° SE
Cosmos 2233 Rocket 4.0 23:18:32 60° SW 23:19:40 74° WNW 23:25:56 10° N
Cosmos 1850 Rocket 3.9 23:14:57 10° NNW 23:20:06 83° NE 23:20:06 83° NE
Cosmos 2056 Rocket 3.8 23:20:45 55° W 23:21:31 61° WNW 23:26:54 10° NNE
SL-16 R/B 4.4 23:17:53 10° NNW 23:22:12 21° NE 23:26:28 10° E
ATLAS 2AS CENTAUR R/B 2.6 23:25:29 63° S 23:26:37 76° SE 23:33:27 10° NE
Cosmos 1331 Rocket 4.1 23:27:28 64° E 23:27:28 64° E 23:32:18 10° NNE
Cosmos 1624 Rocket 4.4 23:28:33 51° W 23:29:11 54° WNW 23:34:18 10° NNE
CZ-2C R/B 2.9 23:29:07 57° E 23:29:42 61° ENE 23:35:02 10° N
Cosmos 292 Rocket 4.2 23:25:42 10° NNW 23:29:43 54° WNW 23:29:43 54° WNW
SeaSat 1 3.6 23:36:18 32° W 23:36:18 32° W 23:39:52 10° NW
Cosmos 1626 Rocket 4.1 23:32:34 10° NNW 23:35:57 54° NNW 23:35:57 54° NNW
Cosmos 2098 Rocket 4.3 23:36:56 44° E 23:37:10 44° E 23:42:27 10° NNE
Nadezhda 4 Rocket 4.1 23:35:56 10° N 23:42:03 62° ENE 23:43:04 54° ESE
Timation 1 Rocket 4.4 23:42:54 61° ESE 23:42:58 61° ESE 23:48:54 10° NE
ACS3 Solar Sail 3.2 23:38:43 10° NE 23:43:28 23° E 23:44:42 22° ESE
Cosmos 1782 4.5 23:45:06 26° NNW 23:45:06 26° NNW 23:47:07 10° N
Meteor 1-25 Rocket 4.3 23:38:27 10° N 23:44:16 70° ENE 23:44:52 65° ESE
Cosmos 1110 Rocket 3.9 23:44:35 86° NW 23:44:35 86° NW 23:49:53 10° NNE
USA 234 4.0 23:38:52 10° ENE 23:45:10 51° N 23:51:27 10° WNW
Cosmos 1697 Rocket 3.1 23:42:03 10° NW 23:47:06 49° W 23:47:06 49° W
Cosmos 2151 3.8 23:49:35 10° NNW 23:52:40 48° NNW 23:52:40 48° NNW
